Weather History for Gainesville, FL

Change the Weather History Date:

Wednesday, January 30, 2013

  Actual Average Record
Temperature  
Mean Temperature 71 °F 55 °F  
Max Temperature 84 °F 67 °F 89 °F (1902)
Min Temperature 57 °F 43 °F 20 °F (1966)
Degree Days  
Heating Degree Days 0 10  
Month to date heating degree days 136 335  
Since 1 July heating degree days 528 792  
Cooling Degree Days 6 0  
Month to date cooling degree days 60 0  
Year to date cooling degree days 60 0  
Growing Degree Days 22 (Base 50)    
Moisture  
Dew Point 62 °F    
Average Humidity 70    
Maximum Humidity 93    
Minimum Humidity 46    
Precipitation  
Precipitation 0.13 in 0.12 in 1.60 in (1926)
Month to date precipitation 0.33 3.21  
Year to date precipitation 0.33 3.21  
Snow  
Snow 0.00 in 0.00 in 0.00 in ()
Month to date snowfall 0.0 0.0  
Since 1 July snowfall 0.0 0.0  
Snow Depth 0.00 in    
Sea Level Pressure  
Sea Level Pressure 29.96 in    
Wind  
Wind Speed 13 mph (South)    
Max Wind Speed 29 mph    
Max Gust Speed 36 mph    
Visibility 9 miles    
Events Rain    
T = Trace of Precipitation, MM = Missing Value Source: NWS Daily Summary

Daily Weather History Graph

Daily Weather History Graph

Search for Another Location

Airport:

Trip Planner

Search our weather history database for the weather conditions in past years. The results will help you decide how hot, cold, wet, or windy it might be!

Date:

Astronomy

Jan. 30, 2013 Rise Set
Actual Time 7:19 AM EST 6:05 PM EST
Civil Twilight 6:54 AM EST 6:30 PM EST
Nautical Twilight 6:26 AM EST 6:59 PM EST
Astronomical Twilight 5:57 AM EST 7:27 PM EST
Moon 9:40 PM EST (1/30) 9:07 AM EST (1/30)
Length of Visible Light 11h 35m
Length of Day
10h 45m
Waning Gibbous, 88% of the Moon is Illuminated
Jan 30
Waning Gibbous
Feb 3
Last Quarter
Feb 10
New
Feb 17
First Quarter
Feb 25
Full

Hourly Weather History & Observations

Time (EST) Temp. Heat Index Dew Point Humidity Pressure Visibility Wind Dir Wind Speed Gust Speed Precip Events Conditions
12:32 AM 69.8 °F - 64.4 °F 83% 30.11 in 9.0 mi SE 5.8 mph - 0.00 in Rain Light Rain
12:53 AM 69.1 °F - 64.9 °F 87% 30.10 in 10.0 mi SE 5.8 mph - 0.00 in   Overcast
1:03 AM 68.0 °F - 64.4 °F 88% 30.11 in 10.0 mi ESE 3.5 mph - N/A   Overcast
1:53 AM 68.0 °F - 64.9 °F 90% 30.09 in 10.0 mi SE 8.1 mph - 0.00 in Rain Light Rain
2:13 AM 68.0 °F - 64.4 °F 88% 30.09 in 10.0 mi SE 5.8 mph - 0.00 in Rain Light Rain
2:53 AM 68.0 °F - 64.9 °F 90% 30.08 in 10.0 mi SSE 5.8 mph - 0.00 in   Overcast
3:53 AM 68.0 °F - 64.0 °F 87% 30.06 in 10.0 mi SSE 9.2 mph - N/A   Overcast
4:53 AM 66.9 °F - 64.0 °F 90% 30.04 in 10.0 mi SSE 8.1 mph - N/A   Clear
5:53 AM 66.0 °F - 63.0 °F 90% 30.04 in 10.0 mi SSE 5.8 mph - N/A   Clear
6:53 AM 66.0 °F - 63.0 °F 90% 30.03 in 10.0 mi SSE 9.2 mph - N/A   Clear
7:53 AM 66.0 °F - 63.0 °F 90% 30.02 in 10.0 mi SSE 6.9 mph - N/A   Clear
8:53 AM 69.1 °F - 63.0 °F 81% 30.01 in 10.0 mi South 9.2 mph - N/A   Clear
9:53 AM 73.0 °F - 62.1 °F 68% 30.00 in 10.0 mi South 19.6 mph 26.5 mph N/A   Clear
10:53 AM 77.0 °F - 61.0 °F 58% 29.99 in 10.0 mi South 16.1 mph 21.9 mph N/A   Clear
11:53 AM 79.0 °F - 60.1 °F 52% 29.96 in 10.0 mi South 17.3 mph - N/A   Clear
12:53 PM 82.0 °F 82.7 °F 61.0 °F 49% 29.93 in 10.0 mi South 10.4 mph - N/A   Clear
1:53 PM 82.0 °F 82.4 °F 60.1 °F 47% 29.90 in 10.0 mi South 17.3 mph 26.5 mph N/A   Partly Cloudy
2:53 PM 82.0 °F 82.4 °F 60.1 °F 47% 29.87 in 10.0 mi South 13.8 mph 21.9 mph N/A   Mostly Cloudy
3:53 PM 82.0 °F 82.4 °F 60.1 °F 47% 29.86 in 10.0 mi South 18.4 mph 26.5 mph N/A   Overcast
4:53 PM 82.0 °F 82.1 °F 59.0 °F 45% 29.85 in 10.0 mi SSW 11.5 mph 25.3 mph N/A   Mostly Cloudy
5:53 PM 78.1 °F - 60.1 °F 54% 29.85 in 10.0 mi SSW 10.4 mph 25.3 mph N/A   Clear
6:53 PM 75.9 °F - 61.0 °F 60% 29.83 in 10.0 mi SSW 12.7 mph - N/A   Clear
7:53 PM 73.9 °F - 61.0 °F 64% 29.84 in 10.0 mi SSW 13.8 mph 23.0 mph N/A   Partly Cloudy
8:53 PM 73.0 °F - 61.0 °F 66% 29.84 in 10.0 mi South 13.8 mph 26.5 mph N/A   Overcast
9:53 PM 73.0 °F - 63.0 °F 71% 29.85 in 10.0 mi SSW 15.0 mph 23.0 mph N/A   Overcast
10:39 PM 73.4 °F - 62.6 °F 69% 29.84 in 10.0 mi SSW 15.0 mph 28.8 mph 0.01 in   Overcast
10:53 PM 71.1 °F - 64.0 °F 78% 29.88 in 4.0 mi West 27.6 mph 35.7 mph 0.01 in Rain Light Rain
11:03 PM 66.2 °F - 64.4 °F 94% 29.90 in 4.0 mi WNW 19.6 mph 34.5 mph 0.06 in Rain Rain
11:18 PM 62.6 °F - 60.8 °F 94% 29.92 in 7.0 mi West 25.3 mph 35.7 mph 0.09 in Rain Light Rain
11:28 PM 62.6 °F - 59.0 °F 88% 29.93 in 4.0 mi West 16.1 mph 28.8 mph 0.09 in Rain Light Rain
11:47 PM 59.0 °F - 55.4 °F 88% 29.94 in 9.0 mi West 11.5 mph 26.5 mph 0.11 in Rain Light Rain